This is the latest recevied weather packets stored in our database for station/object DL1DH-17. If no packets are shown the sender has not sent any weather packets the latest 10 day(s).
| Time | Temp. | Humidity | Pressure | Rain* | Wind** | Luminosity | Snow |
|---|---|---|---|---|---|---|---|
| 1778312983 | 10.56° C | 77% | 980.1 hPa | - | - | - | - |
| 1778312143 | 10° C | 78% | 980.1 hPa | - | - | - | - |
| 1778311303 | 10.56° C | 78% | 980.1 hPa | - | - | - | - |
| 1778310463 | 10° C | 81% | 980 hPa | - | - | - | - |
| 1778309623 | 8.89° C | 81% | 980 hPa | - | - | - | - |
| 1778308903 | 8.89° C | 81% | 980.1 hPa | - | - | - | - |
| 1778308783 | 8.89° C | 81% | 980.1 hPa | - | - | - | - |
| 1778307943 | 8.89° C | 82% | 979.9 hPa | - | - | - | - |
| 1778307103 | 8.33° C | 83% | 979.8 hPa | - | - | - | - |
| 1778306263 | 7.78° C | 84% | 980 hPa | - | - | - | - |
| 1778305423 | 6.67° C | 84% | 980 hPa | - | - | - | - |
| 1778304583 | 6.67° C | 84% | 979.9 hPa | - | - | - | - |
| 1778303742 | 7.22° C | 84% | 979.8 hPa | - | - | - | - |
| 1778302902 | 6.67° C | 85% | 979.7 hPa | - | - | - | - |
| 1778302062 | 6.67° C | 85% | 979.7 hPa | - | - | - | - |
| 1778301222 | 6.67° C | 85% | 979.6 hPa | - | - | - | - |
| 1778300382 | 6.11° C | 85% | 979.5 hPa | - | - | - | - |
| 1778299542 | 6.11° C | 85% | 979.5 hPa | - | - | - | - |
| 1778298702 | 6.11° C | 85% | 979.5 hPa | - | - | - | - |
| 1778297862 | 6.11° C | 85% | 979.5 hPa | - | - | - | - |
| 1778297022 | 5.56° C | 85% | 979.4 hPa | - | - | - | - |
| 1778296182 | 6.11° C | 84% | 979.6 hPa | - | - | - | - |
| 1778295342 | 6.11° C | 84% | 979.4 hPa | - | - | - | - |
| 1778294501 | 6.11° C | 84% | 979.5 hPa | - | - | - | - |
| 1778293661 | 6.11° C | 85% | 979.7 hPa | - | - | - | - |
* Rain since midnight (hover to see other rain measurements)
** Current wind speed in m/s (hover to see current wind gust speed)